Corvallis, OR

6:00 AM PDT on March 25, 2017 (GMT -0700)
Corvallis Municipal

Weather History for KCVO - April, 2014

Change the Weather History Date:

Thursday, April 24, 2014

  Actual Average Record
Temperature  
Mean Temperature 52 °F -  
Max Temperature 57 °F 63 °F 80 °F (1999)
Min Temperature 46 °F 40 °F 35 °F (2004)
Degree Days  
Heating Degree Days 14    
Growing Degree Days 2 (Base 50)    
Moisture  
Dew Point 45 °F    
Average Humidity 78    
Maximum Humidity 88    
Minimum Humidity 51    
Precipitation  
Precipitation 0.48 in - - ()
Sea Level Pressure  
Sea Level Pressure 29.90 in    
Wind  
Wind Speed 11 mph (SW)    
Max Wind Speed 17 mph    
Max Gust Speed 22 mph    
Visibility 10 miles    
Events      
Averages and records for this station are not official NWS values.
T = Trace of Precipitation, MM = Missing Value Source: NWS Daily Summary

Daily Weather History Graph

Daily Weather History Graph

Search for Another Location

Airport or City:

Trip Planner

Search our weather history database for the weather conditions in past years. The results will help you decide how hot, cold, wet, or windy it might be!

Date:

Astronomy

Apr. 24, 2014 Rise Set
Actual Time 6:14 AM PDT 8:09 PM PDT
Civil Twilight 5:42 AM PDT 8:40 PM PDT
Nautical Twilight 5:04 AM PDT 9:18 PM PDT
Astronomical Twilight 4:23 AM PDT 10:00 PM PDT
Moon 3:40 AM PDT (4/24) 3:20 PM PDT (4/24)
Length of Visible Light 14h 57m
Length of Day
13h 55m
Waning Crescent, 23% of the Moon is Illuminated
Apr 24
Waning Crescent
Apr 28
New
May 6
First Quarter
May 14
Full
May 21
Last Quarter

Hourly Weather History & Observations

Time (PDT) Temp. Windchill Dew Point Humidity Pressure Visibility Wind Dir Wind Speed Gust Speed Precip Events Conditions
12:15 AM 53.6 °F - 50.0 °F 88% 29.82 in 10.0 mi South 16.1 mph - 0.01 in   Overcast
12:35 AM 53.6 °F - 50.0 °F 88% 29.83 in 10.0 mi South 11.5 mph - 0.02 in   Overcast
12:55 AM 53.6 °F - 48.2 °F 82% 29.81 in 10.0 mi South 11.5 mph - 0.04 in   Overcast
1:15 AM 53.6 °F - 48.2 °F 82% 29.81 in 10.0 mi South 12.7 mph - 0.03 in   Overcast
1:35 AM 53.6 °F - 48.2 °F 82% 29.81 in 10.0 mi South 12.7 mph - 0.04 in   Overcast
1:55 AM 53.6 °F - 48.2 °F 82% 29.80 in 9.0 mi South 12.7 mph - 0.06 in   Overcast
2:15 AM 53.6 °F - 50.0 °F 88% 29.80 in 9.0 mi South 15.0 mph - 0.04 in   Overcast
2:35 AM 53.6 °F - 50.0 °F 88% 29.79 in 10.0 mi South 15.0 mph 21.9 mph 0.07 in   Overcast
2:55 AM 53.6 °F - 50.0 °F 88% 29.79 in 7.0 mi South 12.7 mph 16.1 mph 0.09 in   Overcast
3:15 AM 53.6 °F - 50.0 °F 88% 29.78 in 8.0 mi South 12.7 mph 16.1 mph 0.03 in   Overcast
3:35 AM 53.6 °F - 50.0 °F 88% 29.78 in 5.0 mi South 11.5 mph 17.3 mph 0.06 in   Overcast
3:55 AM 53.6 °F - 50.0 °F 88% 29.79 in 5.0 mi South 11.5 mph - 0.09 in   Overcast
4:15 AM 53.6 °F - 48.2 °F 82% 29.78 in 7.0 mi South 13.8 mph - 0.01 in   Overcast
4:35 AM 53.6 °F - 48.2 °F 82% 29.77 in 10.0 mi South 15.0 mph - 0.01 in   Overcast
4:55 AM 53.6 °F - 48.2 °F 82% 29.78 in 10.0 mi South 16.1 mph - 0.01 in   Overcast
5:15 AM 53.6 °F - 48.2 °F 82% 29.78 in 10.0 mi South 17.3 mph 20.7 mph N/A   Overcast
5:35 AM 53.6 °F - 48.2 °F 82% 29.77 in 10.0 mi South 11.5 mph - N/A   Overcast
5:55 AM 53.6 °F - 48.2 °F 82% 29.78 in 10.0 mi South 11.5 mph - N/A   Overcast
6:15 AM 53.6 °F - 48.2 °F 82% 29.80 in 10.0 mi South 8.1 mph - 0.01 in   Overcast
6:35 AM 53.6 °F - 48.2 °F 82% 29.81 in 8.0 mi WNW 9.2 mph - 0.09 in   Overcast
6:55 AM 53.6 °F - 48.2 °F 82% 29.83 in 10.0 mi West 3.5 mph - 0.12 in   Mostly Cloudy
7:15 AM 51.8 °F - 46.4 °F 82% 29.84 in 9.0 mi West 6.9 mph - 0.01 in   Overcast
7:35 AM 51.8 °F - 46.4 °F 82% 29.85 in 10.0 mi WNW 3.5 mph - 0.02 in   Overcast
7:55 AM 51.8 °F - 46.4 °F 82% 29.85 in 10.0 mi NNW 3.5 mph - 0.03 in   Overcast
8:15 AM 51.8 °F - 48.2 °F 88% 29.87 in 10.0 mi South 6.9 mph - 0.01 in   Overcast
8:35 AM 53.6 °F - 48.2 °F 82% 29.87 in 10.0 mi SSW 10.4 mph - 0.01 in   Overcast
8:55 AM 51.8 °F - 46.4 °F 82% 29.88 in 10.0 mi SSW 10.4 mph - 0.01 in   Mostly Cloudy
9:15 AM 51.8 °F - 48.2 °F 88% 29.89 in 10.0 mi SSW 12.7 mph - N/A   Overcast
9:35 AM 51.8 °F - 46.4 °F 82% 29.89 in 10.0 mi SW 10.4 mph 16.1 mph N/A   Mostly Cloudy
9:55 AM 51.8 °F - 46.4 °F 82% 29.90 in 10.0 mi SSW 10.4 mph - N/A   Partly Cloudy
10:15 AM 55.4 °F - 48.2 °F 77% 29.91 in 10.0 mi SSW 12.7 mph - N/A   Clear
10:35 AM 55.4 °F - 46.4 °F 72% 29.91 in 10.0 mi SW 10.4 mph 18.4 mph N/A   Mostly Cloudy
10:55 AM 57.2 °F - 46.4 °F 67% 29.92 in 10.0 mi SW 10.4 mph - N/A   Mostly Cloudy
11:15 AM 53.6 °F - 46.4 °F 77% 29.93 in 10.0 mi SW 12.7 mph - N/A   Overcast
11:35 AM 53.6 °F - 46.4 °F 77% 29.94 in 10.0 mi WNW 12.7 mph - 0.01 in   Mostly Cloudy
11:55 AM 51.8 °F - 44.6 °F 76% 29.95 in 10.0 mi WNW 12.7 mph - 0.01 in   Mostly Cloudy
12:15 PM 53.6 °F - 46.4 °F 77% 29.95 in 10.0 mi West 8.1 mph - N/A   Mostly Cloudy
12:35 PM 55.4 °F - 46.4 °F 72% 29.95 in 10.0 mi West 13.8 mph 20.7 mph N/A   Mostly Cloudy
12:55 PM 55.4 °F - 46.4 °F 72% 29.96 in 10.0 mi West 13.8 mph - N/A   Overcast
1:15 PM 57.2 °F - 44.6 °F 63% 29.96 in 10.0 mi West 11.5 mph - N/A   Mostly Cloudy
1:35 PM 57.2 °F - 44.6 °F 63% 29.96 in 10.0 mi West 8.1 mph - N/A   Mostly Cloudy
1:55 PM 55.4 °F - 44.6 °F 67% 29.96 in 10.0 mi WSW 13.8 mph 19.6 mph N/A   Mostly Cloudy
2:15 PM 55.4 °F - 42.8 °F 63% 29.96 in 10.0 mi West 11.5 mph - N/A   Mostly Cloudy
2:35 PM 53.6 °F - 42.8 °F 67% 29.97 in 10.0 mi WSW 15.0 mph 19.6 mph N/A   Overcast
2:55 PM 55.4 °F - 42.8 °F 63% 29.97 in 10.0 mi West 13.8 mph - N/A   Overcast
3:15 PM 57.2 °F - 42.8 °F 59% 29.97 in 10.0 mi SW 17.3 mph - N/A   Mostly Cloudy
3:35 PM 57.2 °F - 41.0 °F 55% 29.97 in 10.0 mi WSW 15.0 mph 21.9 mph N/A   Mostly Cloudy
3:55 PM 55.4 °F - 39.2 °F 54% 29.97 in 10.0 mi SSW 11.5 mph - N/A   Overcast
4:15 PM 57.2 °F - 39.2 °F 51% 29.96 in 10.0 mi WSW 9.2 mph - N/A   Overcast
4:35 PM 57.2 °F - 39.2 °F 51% 29.96 in 10.0 mi West 11.5 mph 18.4 mph N/A   Scattered Clouds
4:55 PM 55.4 °F - 41.0 °F 58% 29.96 in 10.0 mi SW 13.8 mph 18.4 mph N/A   Mostly Cloudy
5:15 PM 53.6 °F - 42.8 °F 67% 29.96 in 10.0 mi WSW 11.5 mph - N/A   Overcast
5:35 PM 53.6 °F - 41.0 °F 62% 29.96 in 10.0 mi SW 9.2 mph - N/A   Mostly Cloudy
5:55 PM 53.6 °F - 42.8 °F 67% 29.96 in 10.0 mi WSW 8.1 mph - N/A   Scattered Clouds
6:15 PM 48.2 °F - 41.0 °F 76% 29.96 in 8.0 mi West 9.2 mph 21.9 mph 0.02 in   Mostly Cloudy
6:35 PM 50.0 °F - 42.8 °F 76% 29.96 in 10.0 mi WSW 5.8 mph - 0.02 in   Overcast
6:55 PM 50.0 °F - 44.6 °F 82% 29.95 in 10.0 mi South 4.6 mph - 0.02 in   Overcast
7:15 PM 50.0 °F - 44.6 °F 82% 29.95 in 10.0 mi South 6.9 mph - N/A   Overcast
7:35 PM 48.2 °F - 44.6 °F 87% 29.95 in 10.0 mi South 9.2 mph - N/A   Overcast
7:55 PM 48.2 °F - 44.6 °F 87% 29.94 in 10.0 mi South 5.8 mph - N/A   Overcast
8:15 PM 48.2 °F - 44.6 °F 87% 29.94 in 10.0 mi SSW 6.9 mph - N/A   Overcast
8:35 PM 48.2 °F - 42.8 °F 82% 29.95 in 10.0 mi SW 6.9 mph - N/A   Overcast
8:55 PM 48.2 °F - 42.8 °F 82% 29.95 in 10.0 mi SSW 6.9 mph - N/A   Overcast
9:15 PM 48.2 °F - 42.8 °F 82% 29.95 in 10.0 mi SSW 8.1 mph - N/A   Overcast
9:35 PM 46.4 °F 43.5 °F 42.8 °F 87% 29.95 in 10.0 mi SSW 5.8 mph - N/A   Overcast
9:55 PM 46.4 °F 42.4 °F 42.8 °F 87% 29.95 in 10.0 mi SSW 8.1 mph - N/A   Overcast
10:15 PM 46.4 °F 44.3 °F 42.8 °F 87% 29.94 in 10.0 mi SW 4.6 mph - N/A   Mostly Cloudy
10:35 PM 46.4 °F 44.3 °F 42.8 °F 87% 29.94 in 10.0 mi SSW 4.6 mph - N/A   Partly Cloudy
10:55 PM 46.4 °F - 42.8 °F 87% 29.94 in 10.0 mi Calm Calm - N/A   Clear
11:15 PM 46.4 °F 45.2 °F 42.8 °F 87% 29.94 in 10.0 mi South 3.5 mph - N/A   Mostly Cloudy
11:35 PM 46.4 °F - 42.8 °F 87% 29.94 in 10.0 mi Calm Calm - N/A   Overcast
11:55 PM 46.4 °F - 42.8 °F 87% 29.94 in 10.0 mi Calm Calm - N/A   Overcast